Showing default

INTELSAT 2-F2, 2639

Orbit data source: Space-Track

INTELSAT 2-F2, 2639 is a payload satellite owned by INTELSAT (US) in GEO that was launched on Wed, 11 Jan 1967 UTC via a THOR DELTA E1 launch vehicle from the Air Force Eastern Test Range (AFETR). Payload-class satellites include a variety of spacecraft equipped with specific instruments for various scientific and technological missions. These include communications satellites like Starlink; space stations such as the ISS; scientific satellites like the Hubble; Earth observation satellites from companies like Planet Labs, Umbra, and HawkEye 360; GPS; miniature CubeSats for education and research; and military/defense satellites.

Loading next visibility...
Identifier
2639, 1967-001A
Orbit
GEO
Country
Flag of USUS / ITSO
Related business
Manufacturer
Hughes
Mission
Non-operational spacecraft
Bus & Motor
HS-303, SVM-1
Mass
163 kg wet, ~65 kg dry
Launch date (UTC)
1967-01-11 (59 years ago)
Launch vehicle
THOR DELTA E1
Launch site
Air Force Eastern Test Range (AFETR)
Object type
Payload
Rocket body
Debris
Shape & HBR
Unknown
Radar Cross Section
Large (>1 m²)

Expand to show TLE details & history
Last TLE update: 5 hours ago

TLE from 5 hours ago
0 INTELSAT 2-F2
1  2639U 67001A   26128.10725637 -.00000266  00000-0  00000+0 0  9998
2  2639   3.1520  77.6317 0006122 213.4355 289.3117  1.00197611118847
Epoch: 2026-05-08T02:34Z
TLE epoch observation values (Epoch: 2026-05-08T02:34:26.950Z)
Latitude
1.89552°
Longitude
-44.20573°
Altitude
35,798.085 km
Speed
3.075 km/s
True Right ascension
14h 41m 24s
True Declination
1° 53' 37"
Sunlit
Object was in daylight at epoch
Visualization orbit readout
Latitude
Unknown
Longitude
Unknown
Altitude
Unknown
Speed
Unknown
Apparent Right ascension
Unknown
Apparent Declination
Unknown
Sunlit
N/A
Visualization observer readout
Local Sidereal Time
16:04:27
Azimuth
Unknown
Elevation
Unknown
Doppler factor
Unknown
Orbital elements
Apogee altitude
35,834.293 km
Perigee altitude
35,782.64 km
Semi-major axis
42,186.604 km
Eccentricity
0.00061
Inclination
3.152°
RAAN
77.6317°
Arg. of periapsis
213.4355°
True anomaly
289.24548°
Mean anomaly
289.3117°
Eccentric anomaly
289.27859°
Mean motion
0.25048 °/min
Orbital period
1,437.21 mins
BSTAR
0
Loading maneuver chart data...
Computing Atmospheric mass density...

Documentation

Showing up to 5 results
|